FW7227 Weather Reports


time (UTC)temp
F
wind
direction
speed
knots
gust
knots
rain 1hr
in
rain 24hr
in
rain mn
in
humidity
%
barometer
mb
20260509170600 59 360 5.2 13.0 0.00 0.00 0.00 62 1017.9
20260509170055 60 360 6.1 13.0 0.00 0.00 0.00 61 1017.8
20260509165557 60 360 5.2 11.3 0.00 0.00 0.00 61 1017.8
20260509165100 60 360 6.1 11.3 0.00 0.00 0.00 61 1017.9
20260509164555 60 360 5.2 12.2 0.00 0.00 0.00 61 1017.9
20260509164059 59 360 7.8 12.2 0.00 0.00 0.00 62 1017.9
20260509163559 59 360 5.2 9.6 0.00 0.00 0.00 64 1018.1
20260509163105 59 360 3.5 10.4 0.00 0.00 0.00 63 1018.2
20260509162557 59 360 5.2 10.4 0.00 0.00 0.00 63 1018.2
20260509162057 59 360 3.5 12.2 0.00 0.00 0.00 62 1018.2
20260509161603 59 360 6.1 12.2 0.00 0.00 0.00 61 1018.2
20260509161056 60 360 7.0 12.2 0.00 0.00 0.00 62 1018.3
20260509160557 60 360 6.1 10.4 0.00 0.00 0.00 62 1018.3
20260509160100 60 360 5.2 11.3 0.00 0.00 0.00 62 1018.4
20260509155558 60 360 4.3 11.3 0.00 0.00 0.00 61 1018.4
20260509155101 60 360 4.3 9.6 0.00 0.00 0.00 61 1018.4
20260509154614 60 360 4.3 9.6 0.00 0.00 0.00 61 1018.4
20260509154058 60 360 5.2 9.6 0.00 0.00 0.00 61 1018.5
20260509153602 60 360 4.3 9.6 0.00 0.00 0.00 60 1018.6
20260509153058 60 360 4.3 9.6 0.00 0.00 0.00 60 1018.6
20260509152600 60 360 4.3 11.3 0.00 0.00 0.00 59 1018.7
20260509152056 60 360 4.3 11.3 0.00 0.00 0.00 60 1018.7
20260509151558 60 360 5.2 9.6 0.00 0.00 0.00 58 1018.8
20260509151057 61 360 5.2 9.6 0.00 0.00 0.00 59 1018.8
20260509150557 61 360 5.2 9.6 0.00 0.00 0.00 58 1018.8
20260509150055 61 360 4.3 12.2 0.00 0.00 0.00 58 1018.9
20260509145557 61 360 6.1 12.2 0.00 0.00 0.00 58 1018.9
20260509145056 61 360 7.0 10.4 0.00 0.00 0.00 58 1018.9
20260509144610 61 360 6.1 11.3 0.00 0.00 0.00 58 1018.9
20260509144056 61 360 3.5 11.3 0.00 0.00 0.00 60 1019.0
20260509143556 61 360 7.0 11.3 0.00 0.00 0.00 58 1019.0
20260509143056 62 360 4.3 11.3 0.00 0.00 0.00 58 1019.1
20260509142556 62 360 5.2 11.3 0.00 0.00 0.00 58 1019.1
20260509142056 62 360 7.0 10.4 0.00 0.00 0.00 56 1019.1
20260509141607 62 360 4.3 11.3 0.00 0.00 0.00 59 1019.1
20260509141056 61 360 5.2 11.3 0.00 0.00 0.00 58 1019.2
20260509140556 61 360 6.1 10.4 0.00 0.00 0.00 57 1019.1
20260509140110 61 360 5.2 10.4 0.00 0.00 0.00 57 1019.3
20260509135556 61 360 4.3 10.4 0.00 0.00 0.00 58 1019.3
20260509135056 61 360 4.3 9.6 0.00 0.00 0.00 59 1019.4
20260509134607 61 360 4.3 10.4 0.00 0.00 0.00 59 1019.4
20260509134056 61 360 4.3 10.4 0.00 0.00 0.00 57 1019.4
20260509133558 61 360 5.2 10.4 0.00 0.00 0.00 56 1019.5
20260509133105 61 360 6.1 10.4 0.00 0.00 0.00 57 1019.5
20260509132558 61 360 5.2 10.4 0.00 0.00 0.00 57 1019.5
20260509132057 61 360 5.2 10.4 0.00 0.00 0.00 57 1019.6
20260509131603 61 360 4.3 8.7 0.00 0.00 0.00 58 1019.6
20260509131058 61 360 3.5 8.7 0.00 0.00 0.00 59 1019.7
20260509130557 61 360 1.7 8.7 0.00 0.00 0.00 60 1019.8
20260509130108 61 360 3.5 8.7 0.00 0.00 0.00 58 1019.8
20260509125556 61 360 2.6 8.7 0.00 0.00 0.00 60 1019.8
20260509125056 61 360 3.5 7.8 0.00 0.00 0.00 58 1019.8
20260509124606 61 360 2.6 8.7 0.00 0.00 0.00 57 1019.7
20260509124056 61 360 4.3 8.7 0.00 0.00 0.00 56 1019.8
20260509123557 61 360 4.3 9.6 0.00 0.00 0.00 58 1019.8
20260509123054 61 360 4.3 10.4 0.00 0.00 0.00 57 1019.9
20260509122556 61 360 6.1 10.4 0.00 0.00 0.00 57 1020.0
20260509122055 61 360 4.3 9.6 0.00 0.00 0.00 57 1020.0
20260509121604 61 360 3.5 8.7 0.00 0.00 0.00 59 1020.0
20260509121057 61 360 2.6 8.7 0.00 0.00 0.00 58 1020.0
20260509120557 61 360 3.5 11.3 0.00 0.00 0.00 58 1020.0
20260509120057 61 360 6.1 11.3 0.00 0.00 0.00 58 1020.0
20260509115556 61 360 4.3 11.3 0.00 0.00 0.00 59 1020.1
20260509115100 61 360 5.2 11.3 0.00 0.00 0.00 59 1020.0
20260509114554 62 360 5.2 10.4 0.00 0.00 0.00 59 1020.1
20260509114056 62 360 5.2 10.4 0.00 0.00 0.00 59 1020.1
20260509113559 62 360 4.3 9.6 0.00 0.00 0.00 63 1020.1
20260509113058 62 360 4.3 8.7 0.00 0.00 0.00 61 1020.2
20260509112601 61 360 3.5 8.7 0.00 0.00 0.00 62 1020.2
20260509112057 61 360 4.3 9.6 0.00 0.00 0.00 65 1020.2
20260509111603 61 360 5.2 9.6 0.00 0.00 0.00 63 1020.2
20260509111058 61 360 4.3 11.3 0.00 0.00 0.00 65 1020.3
20260509110557 61 360 2.6 11.3 0.00 0.00 0.00 66 1020.2
20260509110056 61 360 6.1 11.3 0.00 0.00 0.00 65 1020.2
20260509105557 61 360 3.5 10.4 0.00 0.00 0.00 68 1020.2
20260509105057 60 360 5.2 10.4 0.00 0.00 0.00 67 1020.3
20260509104557 60 360 6.1 10.4 0.00 0.00 0.00 68 1020.4
20260509104057 60 360 4.3 9.6 0.00 0.00 0.00 67 1020.4
20260509103559 60 360 4.3 10.4 0.00 0.00 0.00 69 1020.4
20260509103103 60 360 5.2 10.4 0.00 0.00 0.00 69 1020.5
20260509102559 59 360 3.5 10.4 0.00 0.00 0.00 72 1020.6
20260509102057 59 360 4.3 10.4 0.00 0.00 0.00 72 1020.6
20260509101558 59 360 7.0 11.3 0.00 0.00 0.00 69 1020.6
20260509101057 59 360 6.1 11.3 0.00 0.00 0.00 69 1020.6
20260509100557 59 360 3.5 9.6 0.00 0.00 0.00 71 1020.6
20260509100058 58 360 5.2 9.6 0.00 0.00 0.00 72 1020.7
20260509095600 58 360 2.6 10.4 0.00 0.00 0.00 75 1020.7
20260509095057 58 360 6.1 10.4 0.00 0.00 0.00 72 1020.8
20260509094557 58 360 6.1 10.4 0.00 0.00 0.00 72 1020.8
20260509094056 58 360 5.2 10.4 0.00 0.00 0.00 73 1020.9
20260509093557 57 360 2.6 9.6 0.00 0.00 0.00 72 1020.9
20260509093057 57 360 4.3 9.6 0.00 0.00 0.00 74 1020.9
20260509092557 57 360 3.5 8.7 0.00 0.00 0.00 74 1020.8
20260509092057 57 360 3.5 8.7 0.00 0.00 0.00 75 1020.8
20260509091557 57 360 4.3 8.7 0.00 0.00 0.00 73 1020.8
20260509091058 56 360 4.3 8.7 0.00 0.00 0.00 74 1020.8
20260509090557 56 360 4.3 8.7 0.00 0.00 0.00 73 1020.8
20260509090109 56 360 5.2 8.7 0.00 0.00 0.00 74 1020.9
20260509085557 56 360 3.5 7.8 0.00 0.00 0.00 75 1020.8
20260509085059 56 360 2.6 7.8 0.00 0.00 0.00 76 1020.8
20260509084604 56 360 3.5 7.8 0.00 0.00 0.00 77 1020.8
20260509084057 55 360 3.5 8.7 0.00 0.00 0.00 77 1020.8
20260509083556 55 360 6.1 9.6 0.00 0.00 0.00 75 1020.8
20260509083100 55 360 4.3 9.6 0.00 0.00 0.00 77 1020.9
20260509082557 55 360 4.3 9.6 0.00 0.00 0.00 76 1020.9
20260509082100 55 360 3.5 9.6 0.00 0.00 0.00 77 1020.9
20260509081557 55 360 4.3 9.6 0.00 0.00 0.00 77 1020.8
20260509081057 55 360 2.6 9.6 0.00 0.00 0.00 78 1020.8
20260509080556 54 360 3.5 9.6 0.00 0.00 0.00 79 1020.8
20260509075556 54 360 2.6 7.8 0.00 0.00 0.00 80 1020.8
20260509075056 54 360 1.7 7.8 0.00 0.00 0.00 81 1020.7
20260509074556 53 360 2.6 7.8 0.00 0.00 0.00 83 1020.7
20260509074058 53 0 1.7 7.0 0.00 0.00 0.00 83 1020.8
20260509073557 53 360 2.6 7.0 0.00 0.00 0.00 83 1020.8
20260509073056 53 360 2.6 7.0 0.00 0.00 0.00 83 1020.8
20260509072600 52 360 2.6 5.2 0.00 0.00 0.00 83 1020.8
20260509072057 52 360 1.7 4.3 0.00 0.00 0.00 85 1020.9
20260509071559 52 360 2.6 4.3 0.00 0.00 0.00 86 1020.9
20260509071058 52 360 0.9 3.5 0.00 0.00 0.00 86 1020.8
20260509070558 51 360 1.7 3.5 0.00 0.00 0.00 86 1020.8
20260509070058 51 360 1.7 3.5 0.00 0.00 0.00 87 1020.8
20260509065557 51 360 1.7 4.3 0.00 0.00 0.00 87 1020.8
20260509065057 51 360 0.9 4.3 0.00 0.00 0.00 87 1020.8
20260509064556 51 360 2.6 4.3 0.00 0.00 0.00 88 1020.9
20260509064057 51 360 0.9 3.5 0.00 0.00 0.00 88 1020.7
20260509063557 50 360 0.9 3.5 0.00 0.00 0.00 88 1020.7
20260509063103 50 360 0.9 3.5 0.00 0.00 0.00 88 1020.7
20260509062557 50 360 0.9 3.5 0.00 0.00 0.00 89 1020.7
20260509062057 50 360 0.9 3.5 0.00 0.00 0.00 89 1020.6
20260509061558 50 360 0.9 3.5 0.00 0.00 0.00 90 1020.5
20260509061056 50 360 0.9 3.5 0.00 0.00 0.00 90 1020.5
20260509060601 50 360 1.7 3.5 0.00 0.00 0.00 90 1020.6
20260509060101 50 0 0.9 3.5 0.00 0.00 0.00 90 1020.6
20260509055556 49 360 1.7 3.5 0.00 0.00 0.00 90 1020.6
20260509055101 49 360 0.9 2.6 0.00 0.00 0.00 90 1020.6
20260509054611 49 0 0.0 2.6 0.00 0.00 0.00 91 1020.6
20260509054057 49 360 1.7 2.6 0.00 0.00 0.00 91 1020.6
20260509053601 49 360 0.9 2.6 0.00 0.00 0.00 91 1020.6
20260509053135 49 360 1.7 2.6 0.00 0.00 0.00 91 1020.6
20260509052559 49 360 0.9 2.6 0.00 0.00 0.00 91 1020.6
20260509052056 49 0 0.9 3.5 0.00 0.00 0.00 91 1020.6
20260509051603 49 360 1.7 3.5 0.00 0.00 0.00 91 1020.5
20260509051056 49 360 0.9 3.5 0.00 0.00 0.00 91 1020.5
20260509050558 48 360 1.7 3.5 0.00 0.00 0.00 91 1020.5
20260509050100 48 360 1.7 3.5 0.00 0.00 0.00 91 1020.4
20260509045557 48 360 1.7 3.5 0.00 0.00 0.00 91 1020.4
20260509045059 48 0 1.7 3.5 0.00 0.00 0.00 91 1020.5
20260509044557 48 360 0.9 3.5 0.00 0.00 0.00 91 1020.5
20260509044100 48 360 0.9 3.5 0.00 0.00 0.00 91 1020.4
20260509043558 48 360 0.9 2.6 0.00 0.00 0.00 91 1020.4
20260509043108 48 0 0.0 0.0 0.00 0.00 0.00 91 1020.4
20260509042559 48 0 0.0 0.0 0.00 0.00 0.00 91 1020.4
20260509042056 48 0 0.0 1.7 0.00 0.00 0.00 91 1020.4
20260509041603 48 0 0.0 1.7 0.00 0.00 0.00 91 1020.4
20260509041101 48 0 0.0 2.6 0.00 0.00 0.00 91 1020.3
20260509040559 48 360 0.9 2.6 0.00 0.00 0.00 91 1020.3
20260509040105 48 360 0.0 3.5 0.00 0.00 0.00 91 1020.3
20260509035556 48 360 1.7 3.5 0.00 0.00 0.00 91 1020.2
20260509035057 48 360 1.7 3.5 0.00 0.00 0.00 91 1020.3
20260509034606 48 360 0.9 3.5 0.00 0.00 0.00 91 1020.3
20260509034056 48 360 1.7 3.5 0.00 0.00 0.00 91 1020.3
20260509033557 48 360 0.9 3.5 0.00 0.00 0.00 91 1020.3
20260509033056 48 0 1.7 3.5 0.00 0.00 0.00 91 1020.3
20260509032557 48 360 1.7 3.5 0.00 0.00 0.00 91 1020.4
20260509032056 48 360 1.7 3.5 0.00 0.00 0.00 91 1020.4
20260509031605 48 360 1.7 3.5 0.00 0.00 0.00 90 1020.5
20260509031056 48 360 0.9 2.6 0.00 0.00 0.00 91 1020.5
20260509030556 48 360 0.9 2.6 0.00 0.00 0.00 90 1020.6
20260509030059 48 360 0.9 2.6 0.00 0.00 0.00 90 1020.6
20260509025556 48 0 0.0 0.0 0.00 0.00 0.00 90 1020.7
20260509025056 48 0 0.0 0.0 0.00 0.00 0.00 90 1020.7
20260509024559 48 0 0.0 0.0 0.00 0.00 0.00 90 1020.8
20260509024057 48 0 0.0 0.0 0.00 0.00 0.00 90 1020.8
20260509023557 48 0 0.0 0.0 0.00 0.00 0.00 90 1020.7
20260509023057 48 0 0.0 0.0 0.00 0.00 0.00 90 1020.8
20260509022559 48 0 0.0 0.0 0.00 0.00 0.00 90 1020.7
20260509022057 48 0 0.0 0.0 0.00 0.00 0.00 90 1020.7
20260509021557 48 0 0.0 0.0 0.00 0.00 0.00 90 1020.8
20260509021058 48 0 0.0 0.0 0.00 0.00 0.00 90 1020.7
20260509020557 48 0 0.0 0.0 0.00 0.00 0.00 90 1020.8
20260509020056 48 0 0.0 1.7 0.00 0.00 0.00 90 1020.7
20260509015557 48 0 0.0 1.7 0.00 0.00 0.00 90 1020.7
20260509015058 48 360 0.9 1.7 0.00 0.00 0.00 90 1020.6
20260509014601 48 360 0.0 1.7 0.00 0.00 0.00 90 1020.7
20260509014057 48 0 0.0 0.0 0.00 0.00 0.00 90 1020.7
20260509013558 48 0 0.0 0.0 0.00 0.00 0.00 90 1020.6
20260509013102 48 0 0.0 1.7 0.00 0.00 0.00 90 1020.6
20260509012557 48 0 0.0 1.7 0.00 0.00 0.00 90 1020.5
20260509012100 48 0 0.0 1.7 0.00 0.00 0.00 90 1020.6
20260509011602 48 0 0.0 2.6 0.00 0.00 0.00 89 1020.5
20260509011101 48 0 0.0 2.6 0.00 0.00 0.00 89 1020.6
20260509010557 48 360 0.9 2.6 0.00 0.00 0.00 89 1020.6
20260509010058 48 360 0.9 2.6 0.00 0.00 0.00 89 1020.6
20260509005559 48 0 0.0 1.7 0.00 0.00 0.00 89 1020.6
20260509005056 48 0 0.0 1.7 0.00 0.00 0.00 89 1020.7
20260509004601 48 0 0.0 2.6 0.00 0.00 0.00 89 1020.7
20260509004057 48 0 0.0 2.6 0.00 0.00 0.00 89 1020.7
20260509003557 49 360 0.9 2.6 0.00 0.00 0.00 89 1020.6
20260509003056 49 360 0.0 1.7 0.00 0.00 0.00 89 1020.7
20260509002559 49 0 0.0 0.0 0.00 0.00 0.00 89 1020.7
20260509002057 49 0 0.0 0.0 0.00 0.00 0.00 89 1020.7
20260509001558 49 0 0.0 0.0 0.00 0.00 0.00 89 1020.7
20260509001057 49 0 0.0 0.0 0.00 0.00 0.00 88 1020.7
20260509000557 49 0 0.0 0.0 0.00 0.00 0.00 88 1020.7
20260509000059 49 0 0.0 0.0 0.00 0.00 0.00 88 1020.7
20260508235557 49 0 0.0 0.0 0.00 0.00 0.00 88 1020.6
20260508235057 49 0 0.0 0.0 0.00 0.00 0.00 88 1020.7
20260508234556 49 0 0.0 0.0 0.00 0.00 0.00 88 1020.7
20260508234057 49 0 0.0 0.0 0.00 0.00 0.00 88 1020.6
20260508233557 49 0 0.0 0.0 0.00 0.00 0.00 88 1020.6
20260508233106 49 0 0.0 0.0 0.00 0.00 0.00 88 1020.6
20260508232556 49 0 0.0 0.0 0.00 0.00 0.00 88 1020.6
20260508232056 49 0 0.0 0.9 0.00 0.00 0.00 88 1020.6
20260508231555 49 0 0.0 1.7 0.00 0.00 0.00 88 1020.7
20260508231058 49 0 0.0 1.7 0.00 0.00 0.00 88 1020.6
20260508230558 49 0 0.0 1.7 0.00 0.00 0.00 88 1020.6
20260508230106 49 360 0.9 2.6 0.00 0.00 0.00 88 1020.6
20260508225554 49 360 0.9 2.6 0.00 0.00 0.00 88 1020.6
20260508225058 49 360 0.9 1.7 0.00 0.00 0.00 88 1020.6
20260508224557 49 360 0.9 1.7 0.00 0.00 0.00 88 1020.6
20260508224059 49 0 0.0 0.0 0.00 0.00 0.00 88 1020.6
20260508223557 49 0 0.0 0.0 0.00 0.00 0.00 88 1020.7
20260508223056 49 0 0.0 0.0 0.00 0.00 0.00 87 1020.7
20260508222558 49 0 0.0 0.0 0.00 0.00 0.00 87 1020.8
20260508222057 49 0 0.0 0.0 0.00 0.00 0.00 87 1020.8
20260508221612 49 0 0.0 0.0 0.00 0.00 0.00 87 1020.8
20260508221057 49 0 0.0 0.0 0.00 0.00 0.00 87 1020.8
20260508220557 49 0 0.0 0.0 0.00 0.00 0.00 87 1020.8
20260508220058 49 0 0.0 0.0 0.00 0.00 0.00 86 1020.8
20260508215556 49 0 0.0 0.0 0.00 0.00 0.00 86 1020.7
20260508215057 49 0 0.0 0.0 0.00 0.00 0.00 86 1020.8
20260508214606 49 0 0.0 0.0 0.00 0.00 0.00 86 1020.7
20260508214057 49 0 0.0 0.0 0.00 0.00 0.00 86 1020.8
20260508213557 49 0 0.0 0.0 0.00 0.00 0.00 86 1020.8
20260508213057 49 0 0.0 0.0 0.00 0.00 0.00 86 1020.8
20260508212556 49 0 0.0 0.0 0.00 0.00 0.00 86 1020.8
20260508212056 49 0 0.0 0.0 0.00 0.00 0.00 86 1020.9
20260508211557 50 0 0.0 1.7 0.00 0.00 0.00 86 1020.8
20260508211057 50 0 0.0 2.6 0.00 0.00 0.00 86 1020.8
20260508210559 50 0 0.0 2.6 0.00 0.00 0.00 86 1020.8
20260508210104 50 360 0.0 1.7 0.00 0.00 0.00 86 1020.8
20260508205556 50 0 0.0 1.7 0.00 0.00 0.00 86 1020.8
20260508205057 50 360 0.9 1.7 0.00 0.00 0.00 86 1020.8
20260508204601 50 0 0.0 1.7 0.00 0.00 0.00 86 1020.7
20260508204057 50 0 0.0 1.7 0.00 0.00 0.00 86 1020.7
20260508203559 50 0 0.9 1.7 0.00 0.00 0.00 85 1020.6
20260508203103 50 360 0.0 1.7 0.00 0.00 0.00 85 1020.6
20260508202557 50 360 0.0 0.0 0.00 0.00 0.00 85 1020.7
20260508202056 50 0 0.0 0.0 0.00 0.00 0.00 85 1020.6
20260508201558 50 0 0.0 0.0 0.00 0.00 0.00 85 1020.6
20260508201057 50 0 0.0 0.0 0.00 0.00 0.00 85 1020.6
20260508200557 50 0 0.0 0.0 0.00 0.00 0.00 85 1020.5
20260508200100 50 0 0.0 0.0 0.00 0.00 0.00 85 1020.5
20260508195557 50 0 0.0 0.0 0.00 0.00 0.00 85 1020.6
20260508195057 50 0 0.0 0.0 0.00 0.00 0.00 85 1020.5
20260508194554 50 0 0.0 2.6 0.00 0.00 0.00 85 1020.6
20260508194056 50 0 0.0 2.6 0.00 0.00 0.00 84 1020.5
20260508193556 50 360 0.9 3.5 0.00 0.00 0.00 84 1020.4
20260508193112 51 360 0.9 3.5 0.00 0.00 0.00 84 1020.5
20260508192601 51 360 0.9 3.5 0.00 0.00 0.00 84 1020.5
20260508192057 51 0 0.9 2.6 0.00 0.00 0.00 83 1020.4
20260508191559 51 0 0.9 2.6 0.00 0.00 0.00 83 1020.4
20260508191056 51 360 0.0 2.6 0.00 0.00 0.00 83 1020.3
20260508190557 51 360 0.0 2.6 0.00 0.00 0.00 83 1020.3
20260508190057 51 0 0.0 2.6 0.00 0.00 0.00 83 1020.3
20260508185559 51 360 0.0 2.6 0.00 0.00 0.00 83 1020.3
20260508185056 51 0 0.0 1.7 0.00 0.00 0.00 83 1020.2
20260508184558 51 0 0.0 2.6 0.00 0.00 0.00 83 1020.2
20260508184059 51 0 0.0 2.6 0.00 0.00 0.00 83 1020.2
20260508183556 51 360 0.9 2.6 0.00 0.00 0.00 82 1020.1
20260508183055 51 0 0.0 0.9 0.00 0.00 0.00 82 1020.2
20260508182557 51 0 0.0 0.0 0.00 0.00 0.00 82 1020.1
20260508182057 51 0 0.0 1.7 0.00 0.00 0.00 82 1020.2
20260508181558 51 0 0.0 1.7 0.00 0.00 0.00 82 1020.1
20260508181057 52 0 0.0 1.7 0.00 0.00 0.00 82 1020.1
20260508180558 52 0 0.0 1.7 0.00 0.00 0.00 82 1020.1
20260508180059 52 0 0.0 1.7 0.00 0.00 0.00 82 1020.0
20260508175556 52 360 0.0 2.6 0.00 0.00 0.00 81 1020.0
20260508175057 52 0 0.9 2.6 0.00 0.00 0.00 81 1020.0
20260508174557 52 360 0.0 2.6 0.00 0.00 0.00 81 1020.0
20260508174057 52 0 0.0 2.6 0.00 0.00 0.00 81 1019.9
20260508173557 52 360 0.9 2.6 0.00 0.00 0.00 80 1020.0
20260508173054 52 360 0.9 2.6 0.00 0.00 0.00 80 1020.0
20260508172556 52 0 0.9 3.5 0.00 0.00 0.00 80 1020.0
20260508172056 52 0 0.0 3.5 0.00 0.00 0.00 80 1019.9
20260508171556 52 360 0.9 3.5 0.00 0.00 0.00 79 1019.9
20260508171059 52 0 0.9 3.5 0.00 0.00 0.00 79 1019.8